Weather in Gusino

Russia / Smolensk Oblast     54°43′26″N   31°22′03″E
temp.,
°C
wind,
m/s
gust,
m/s
humid.,
%
clouds,
%
prec.,
mm/h
press.,
hPa
HPBL,
m
8 march, mon
mon800:00−5w5138484 0.1 1002520
03:00−6w5138758 0.1 1002577
06:00−7wnw4119290 0.1 1002453
09:00−6nw599192 0.2 1004746
12:00−5nnw568357 0.0 1007775
15:00−5nw577979 0.1 1008997
18:00−6nnw4886100 0.1 1010568
21:00−10nnw4109083 0.1 1013276
9 march, tue
tue900:00−12nnw37944 0.0 1015179
03:00−13nnw359517 0.0 101788
06:00−14nnw35951 0.0 101897
09:00−12nnw369411 0.0 1020242
12:00−8nnw468394 0.0 1020737
15:00−7nw477797 0.1 1021978
18:00−8nw248282 0.0 1022126
21:00−12nnw118765 0.0 102421
10 march, wed
wed1000:00−11sse129077 0.0 102428
03:00−9sse349588 0.8 1024200
06:00−9se2396100 1.1 1024101
09:00−10e5795100 2.4 1025267
12:00−10e5890100 0.7 1026433
15:00−9e4686100 0.8 1027508
18:00−12e478363 0.0 1028308
21:00−16e368631 0.0 1030124
11 march, thu
thu1100:00−18ese35911 0.0 103291
03:00−19se358917 0.0 103284
06:00−20se368573 0.0 1032119
09:00−18sse478343 0.0 1032239
12:00−12sse46750 0.0 1031332
15:00−9sse58790 0.0 1029432
18:00−10sse510840 0.0 1027382
21:00−12sse6138711 0.0 1026342
12 march, fri
fri1200:00−12sse61491100 0.0 1024350
03:00−12sse71489100 0.0 1021413
06:00−9sse81786100 0.0 1017613
09:00−6sse91891100 0.4 1013826
12:00−4s101793100 2.4 10091034
15:00−1s81595100 5.1 1007856
18:000ssw71398100 1.4 1006635
21:00+1sw51298100 2.6 1006536